Weather in Kalmykovsky

Russia / Volgograd Oblast     49°00′50″N   42°47′09″E
temp.,
°C
wind,
m/s
gust,
m/s
humid.,
%
clouds,
%
prec.,
mm/h
press.,
hPa
HPBL,
m
27 july, tue
tue2700:00+21ne511434 0.0 1020242
03:00+21ene5104398 0.0 1020244
06:00+20ene5104891 0.0 1021254
09:00+26ene673399 0.0 1020730
12:00+29e432899 0.0 10202043
15:00+30ene2323100 0.0 10183129
18:00+30ne5623100 0.0 1017867
21:00+24ene333468 0.0 101829
28 july, wed
wed2800:00+22ene11363 0.0 101811
03:00+20n22435 0.0 101811
06:00+21n35503 0.0 1018115
09:00+28nne33343 0.0 1018846
12:00+31n3328100 0.0 10163126
15:00+31w232671 0.0 10152992
18:00+30ne432713 0.0 10151477
21:00+26se233666 0.0 101540
29 july, thu
thu2900:00+24s3338100 0.0 101545
03:00+25s3636100 0.0 1014143
06:00+24ssw3539100 0.0 1014119
09:00+29sw563477 0.0 1014748
12:00+33wsw66249 0.0 10123392
15:00+32w562798 0.0 10112498
18:00+31w473039 0.0 10111317
21:00+28sw223518 0.0 101112
30 july, fri
fri3000:00+24sw124688 0.0 101111
03:00+24wsw225145 0.0 101114
06:00+24sw225498 0.0 101173
09:00+30ssw45318 0.0 1011682
12:00+33wsw562815 0.1 10102702
15:00+31w3636100 0.4 1009470
18:00+32w573694 0.0 1009917
21:00+26w475066 0.1 1009175
31 july, sat
sat3100:00+22ne4770100 0.9 1010153
03:00+22nw116774 0.9 101013
06:00+23s23655 0.0 101093
09:00+29sw234322 0.0 1010664
12:00+34w462924 0.0 10092435
15:00+34w452976 0.0 10082614
18:00+34wsw342910 0.0 10082225
21:00+24ene3561100 0.1 101092